Location: Eboldshausen
(51.7766°N, 10.0050°E)
Time: 17:27:53
(UTC+00:00)

Cosmos 2058 - Pass Details

Date: 15 November 2025
Orbit: 529 x 540 km, 82.5° (Epoch: 10 December)

Event Time Altitude Azimuth Distance (km) Brightness Sun altitude
Rises 17:53:11 0° 346° (NNW) 2,705 6.5 -22.0°
Reaches altitude 10° 17:55:22 10° 342° (NNW) 1,810 5.6 -22.3°
Maximum altitude 17:59:16 56° 264° (W) 649 3.4 -22.9°
Drops below altitude 10° 18:03:08 10° 186° (S) 1,802 5.5 -23.6°
Sets 18:05:19 0° 182° (S) 2,690 6.4 -23.9°
